#timestamp,LO_Frequency,Hit,StdDev 
1637755215.1,286047000.1,N
1637755235.9,286046998.5,N
1637755255.7,286047000.8,N
1637755275.6,286046998.9,N
1637755295.4,286046998.1,N
1637755315.2,286046999.4,N
1637755335.1,286046998.3,N
1637755336.0,286046998.3,N
1637755355.8,286046999.0,N
1637755375.6,286046998.7,N
1637755395.5,286046998.8,N
1637755415.3,286046999.6,N
1637755435.2,286046996.6,N
1637755455.9,286046998.4,N
1637755475.7,286046998.8,N
1637755495.6,286046998.3,N
1637755515.4,286046996.9,N
1637755535.2,286046997.5,N
1637755555.1,286046997.6,N
1637755556.0,286046997.6,N
1637755575.8,286046997.9,N
1637755595.7,286046994.9,N
1637755615.5,286046995.2,N
1637755635.3,286046997.5,N
1637755655.2,286046995.0,N
1637755675.0,286046996.1,N
1637755675.9,286046996.1,N
1637755695.7,286046997.1,N
1637755745.6,286046995.3,E
1637755755.5,286046997.0,N
1637755775.4,286047002.3,P
1637755795.2,286047002.6,N
1637755815.0,286047000.6,N
1637755815.9,286047000.6,N
1637755835.8,286046998.9,N
1637755855.6,286046996.5,N
1637755875.5,286046999.1,N
1637755895.3,286046997.4,N
1637755915.1,286046995.6,N
1637755935.9,286046995.5,N
1637755955.7,286046997.5,N
1637755975.5,286046997.4,N
1637755995.4,286046995.5,N
1637756015.2,286046994.9,N
1637756035.1,286046996.4,N
1637756036.0,286046996.4,N
1637756055.8,286046993.3,N
1637756075.6,286046994.3,N
1637756095.5,286046991.9,Y
1637756115.3,286046995.7,P
1637756135.2,286046995.4,P
1637756155.9,286046993.5,P
1637756175.7,286046996.4,N
1637756195.6,286046996.0,Y
1637756215.4,286047000.7,P
1637756235.2,286047000.5,N
1637756255.1,286047000.1,N
1637756256.0,286047000.1,N
1637756275.8,286046998.5,N
1637756295.7,286046999.1,N
1637756315.5,286046998.9,N
1637756335.3,286046996.8,N
1637756355.2,286046999.4,N
1637756375.0,286046999.5,N
1637756375.9,286046999.5,N
1637756395.7,286046998.7,N
1637756415.6,286046998.3,N
1637756435.4,286046998.6,N
1637756455.3,286046998.9,N
1637756475.1,286046996.9,N
1637756476.0,286046996.9,N
1637756495.8,286046999.5,N
1637756515.7,286046996.7,N
1637756535.5,286046998.8,N
1637756555.3,286046997.0,N
1637756575.2,286046998.6,N
1637756595.0,286046998.9,N
1637756595.9,286046998.9,N
1637756615.8,286046999.1,N
1637756635.6,286047001.1,N
1637756655.4,286046998.8,N
1637756675.3,286046999.1,N
1637756695.1,286046996.8,N
1637756715.9,286046998.9,N
1637756735.7,286046997.4,N
1637756755.5,286046997.5,N
1637756775.4,286046997.6,N
1637756795.2,286046997.2,N
1637756815.0,286046995.0,Y
1637756815.9,286046995.0,P
1637756835.8,286046996.7,N
1637756855.6,286046998.0,N
1637756875.5,286046995.9,Y
1637756895.3,286046998.5,P
1637756915.1,286047001.2,N
1637756935.9,286046998.8,N
1637756955.7,286046998.7,N
1637756975.6,286046998.6,N
1637756995.4,286047000.2,N
1637757015.2,286047001.4,N
1637757035.1,286047002.8,N
1637757036.0,286047002.8,N
1637757055.8,286047002.7,N
1637757075.6,286047004.0,N
1637757095.5,286047000.2,N
1637757115.3,286047002.0,N
1637757135.1,286046999.7,N
1637757155.9,286046999.9,N
1637757175.7,286047000.1,N
1637757195.6,286046999.7,N
1637757215.4,286046999.9,N
1637757235.2,286047001.9,N
1637757255.1,286047000.1,N
1637757256.0,286047000.1,N
1637757275.8,286047002.0,N
1637757295.7,286047001.6,N
1637757315.5,286047002.6,N
1637757335.3,286047002.5,N
1637757355.2,286047000.1,N
1637757405.9,286047000.1,E
1637757415.9,286047000.7,N
1637757435.7,286046998.9,P
1637757455.5,286046998.1,N
1637757475.4,286046998.3,N
1637757495.2,286046998.6,N
1637757515.0,286047000.5,N
1637757515.9,286047000.5,N
1637757535.8,286046999.3,N
1637757555.6,286046999.4,N
1637757575.5,286046999.0,N
1637757595.3,286046999.2,N
1637757615.1,286046998.6,N
1637757635.9,286046998.1,N
1637757655.7,286046998.7,N
1637757675.5,286046998.5,N
1637757695.4,286046998.7,N
1637757715.2,286046998.8,N
1637757735.1,286046998.4,N
1637757736.0,286046998.4,N
1637757755.8,286047000.1,N
1637757775.6,286047001.1,N
1637757795.5,286047000.3,N
1637757815.3,286047000.0,N
1637757835.1,286047002.7,N
1637757855.9,286046999.7,N
1637757875.7,286046999.8,N
1637757895.6,286047001.5,N
1637757915.4,286047001.6,N
1637757935.2,286047002.4,N
1637757955.1,286047002.5,N
1637757956.0,286047002.5,N
1637757975.8,286047000.4,N
1637757995.6,286047002.6,N
1637758015.5,286046999.7,N
1637758035.3,286047002.6,N
1637758055.2,286047000.1,N
1637758075.0,286047000.7,N
1637758075.9,286047000.7,N
1637758095.7,286047001.2,N
1637758115.6,286047001.1,N
1637758135.4,286046998.3,N
1637758155.3,286047001.0,N
1637758175.1,286046998.6,N
1637758176.0,286046998.6,N
1637758195.8,286047000.5,N
1637758215.7,286047002.4,N
1637758235.5,286047000.4,N
1637758255.4,286047000.5,N
1637758275.2,286047001.0,N
1637758295.0,286047000.0,N
1637758295.9,286047000.0,N
1637758315.8,286047000.9,N
1637758335.6,286046999.9,N
1637758355.4,286047002.1,N
1637758375.3,286047000.2,N
1637758395.1,286047000.7,N
1637758415.9,286046999.4,N
1637758435.7,286046999.0,N
1637758455.5,286046999.0,N
1637758475.4,286046998.3,N
1637758495.2,286047001.0,N
1637758515.0,286046999.7,N
1637758516.0,286046999.7,N
1637758535.8,286046998.1,N
1637758555.6,286046999.3,N
1637758575.5,286046998.3,N
1637758595.3,286046998.3,N
1637758615.1,286046998.1,N
1637758635.9,286046998.9,N
1637758655.7,286046998.8,N
1637758675.6,286046998.6,N
1637758695.4,286047000.8,N
1637758715.2,286047000.8,N
1637758735.1,286046998.8,N
1637758736.0,286046998.8,N
1637758755.8,286046998.2,N
1637758775.7,286046998.3,N
1637758795.5,286047000.7,N
